Location: Cahas Mountain Overlook
(37.0833°N, 80.1000°W)
Time: 22:47:17
(UTC-05:00)

Transit 2A - All Passes

Search period start: 22 January 2022 00:00
Search period end: 01 February 2022 00:00
Orbit: 591 x 967 km, 66.7° (Epoch: 22 January)

Date Brightness Start Highest point End Pass type
(mag) Time Alt. Az. Time Alt. Az. Time Alt. Az.
22 Jan - 11:16:50 10° S 11:22:14 36° ESE 11:27:57 10° NE daylight
22 Jan - 12:59:49 10° WSW 13:05:27 37° NW 13:11:20 10° NNE daylight
22 Jan - 20:06:44 10° N 20:11:18 22° NE 20:15:35 10° E visible
22 Jan - 21:49:13 10° NW 21:55:05 62° WSW 22:00:23 10° SSE visible
23 Jan - 10:43:27 10° SSE 10:48:13 25° ESE 10:53:12 10° NE daylight
23 Jan - 12:25:08 10° SW 12:31:03 52° WNW 12:37:18 10° NNE daylight
23 Jan - 14:14:21 10° NW 14:15:51 11° NW 14:17:21 10° NNW daylight
23 Jan - 19:33:06 10° N 19:36:42 16° NE 19:40:08 10° E visible
23 Jan - 21:14:53 10° NNW 21:20:54 90° ENE 21:26:18 10° SSE visible
23 Jan - 23:02:07 10° W 23:03:01 10° W 23:03:55 10° WSW night (unlit)
24 Jan - 10:10:34 10° SE 10:14:14 17° ESE 10:18:02 10° ENE daylight
24 Jan - 11:50:41 10° SW 11:56:44 73° WNW 12:03:08 10° NNE daylight
24 Jan - 13:37:47 10° WNW 13:41:09 15° NW 13:44:33 10° N daylight
24 Jan - 18:59:57 10° NNE 19:02:02 12° NE 19:04:03 10° ENE visible
24 Jan - 20:40:40 10° NNW 20:46:38 62° ENE 20:51:59 10° SE visible
24 Jan - 22:25:35 10° WNW 22:29:07 17° WSW 22:32:27 10° SW visible
25 Jan - 09:39:08 10° ESE 09:40:20 11° E 09:41:32 10° E daylight
25 Jan - 11:16:26 10° SSW 11:22:29 81° ESE 11:28:53 10° NNE daylight
25 Jan - 13:02:07 10° W 13:06:31 20° NW 13:11:01 10° N daylight
25 Jan - 20:06:34 10° NNW 20:12:17 43° NE 20:17:28 10° SE visible
25 Jan - 21:50:29 10° NW 21:55:09 25° WSW 21:59:29 10° SSW visible
26 Jan - 10:42:25 10° S 10:48:18 56° ESE 10:54:32 10° NE daylight
26 Jan - 12:26:51 10° WSW 12:31:57 26° NW 12:37:14 10° N daylight
26 Jan - 19:32:34 10° N 19:37:51 31° NE 19:42:41 10° ESE visible
26 Jan - 21:15:46 10° NW 21:21:08 38° WSW 21:26:01 10° S visible
27 Jan - 10:08:40 10° S 10:14:12 39° ESE 10:20:02 10° NE daylight
27 Jan - 11:51:53 10° WSW 11:57:29 35° NW 12:03:18 10° NNE daylight
27 Jan - 18:58:42 10° N 19:03:20 23° NE 19:07:40 10° E visible
27 Jan - 20:41:15 10° NW 20:47:02 57° WSW 20:52:14 10° S visible
28 Jan - 09:35:12 10° SSE 09:40:10 27° ESE 09:45:19 10° NE daylight
28 Jan - 11:17:10 10° SW 11:23:05 49° WNW 11:29:16 10° NNE daylight
28 Jan - 13:07:11 10° NW 13:07:56 10° NW 13:08:41 10° NNW daylight
28 Jan - 18:25:01 10° N 18:28:45 17° NE 18:32:17 10° E visible
28 Jan - 20:06:55 10° NNW 20:12:52 85° WSW 20:18:11 10° SSE visible
29 Jan - 09:02:11 10° SE 09:06:10 18° ESE 09:10:17 10° ENE daylight
29 Jan - 10:42:39 10° SW 10:48:45 69° WNW 10:55:09 10° NNE daylight
29 Jan - 12:30:04 10° WNW 12:33:13 14° NW 12:36:23 10° N daylight
29 Jan - 17:51:45 10° NNE 17:54:05 12° NE 17:56:20 10° ENE daylight
29 Jan - 19:32:40 10° NNW 19:38:37 67° ENE 19:43:55 10° SE visible
29 Jan - 21:17:52 10° WNW 21:21:01 15° WSW 21:24:00 10° SW visible
30 Jan - 08:30:11 10° ESE 08:32:15 12° E 08:34:20 10° E daylight
30 Jan - 10:08:22 10° SSW 10:14:29 86° ESE 10:20:55 10° NNE daylight
30 Jan - 11:54:18 10° W 11:58:34 19° NW 12:02:55 10° N daylight
30 Jan - 18:58:33 10° NNW 19:04:17 46° ENE 19:09:26 10° SE visible
30 Jan - 20:42:38 10° NW 20:47:03 23° WSW 20:51:10 10° SSW visible
31 Jan - 09:34:18 10° SSW 09:40:17 61° ESE 09:46:34 10° NE daylight
31 Jan - 11:18:58 10° WSW 11:24:00 25° NW 11:29:10 10° N daylight
31 Jan - 18:24:32 10° N 18:29:51 32° NE 18:34:42 10° ESE visible
31 Jan - 20:07:52 10° NW 20:13:03 35° WSW 20:17:47 10° S visible
